TimeEST,TemperatureF,Dew PointF,Humidity,Sea Level PressureIn,VisibilityMPH,Wind Direction,Wind SpeedMPH,Gust SpeedMPH,PrecipitationIn,Events,Conditions,WindDirDegrees,DateUTC
12:15 AM,10.4,-0.4,62,30.41,10.0,Calm,Calm,-,N/A,,Overcast,0,2013-01-25 05:15:00
12:35 AM,10.4,-0.4,62,30.39,10.0,West,3.5,-,N/A,,Overcast,270,2013-01-25 05:35:00
12:55 AM,10.4,-2.2,57,30.38,10.0,West,4.6,-,N/A,,Overcast,260,2013-01-25 05:55:00
1:15 AM,10.4,-0.4,62,30.37,9.0,West,3.5,-,N/A,,Overcast,270,2013-01-25 06:15:00
1:35 AM,10.4,3.2,73,30.36,1.8,West,5.8,-,N/A,,Overcast,260,2013-01-25 06:35:00
1:55 AM,10.4,-0.4,62,30.34,1.0,WSW,4.6,-,N/A,,Overcast,250,2013-01-25 06:55:00
2:15 AM,10.4,3.2,73,30.33,1.0,Calm,Calm,-,N/A,,Overcast,0,2013-01-25 07:15:00
2:35 AM,10.4,5.0,79,30.31,1.2,Calm,Calm,-,N/A,,Overcast,0,2013-01-25 07:35:00
2:55 AM,10.4,5.0,79,30.30,2.5,Calm,Calm,-,N/A,,Overcast,0,2013-01-25 07:55:00
3:15 AM,10.4,5.0,79,30.29,2.0,Calm,Calm,-,N/A,,Overcast,0,2013-01-25 08:15:00
3:35 AM,10.4,5.0,79,30.27,2.5,Calm,Calm,-,N/A,,Overcast,0,2013-01-25 08:35:00
3:55 AM,10.4,6.8,85,30.26,2.0,Calm,Calm,-,N/A,,Overcast,0,2013-01-25 08:55:00
4:15 AM,10.4,6.8,85,30.25,2.5,Calm,Calm,-,N/A,,Overcast,0,2013-01-25 09:15:00
4:35 AM,10.4,6.8,85,30.24,3.0,Calm,Calm,-,N/A,,Overcast,0,2013-01-25 09:35:00
4:55 AM,10.4,6.8,85,30.22,3.0,Calm,Calm,-,N/A,,Overcast,0,2013-01-25 09:55:00
5:15 AM,10.4,6.8,85,30.21,3.0,Calm,Calm,-,N/A,,Overcast,0,2013-01-25 10:15:00
5:35 AM,12.2,6.8,79,30.19,2.5,South,3.5,-,N/A,,Overcast,170,2013-01-25 10:35:00
5:55 AM,12.2,6.8,79,30.19,2.0,South,3.5,-,N/A,,Overcast,190,2013-01-25 10:55:00
6:15 AM,10.4,6.8,85,30.17,3.0,Calm,Calm,-,N/A,,Overcast,0,2013-01-25 11:15:00
6:35 AM,12.2,8.6,85,30.15,5.0,Calm,Calm,-,N/A,,Overcast,0,2013-01-25 11:35:00
6:55 AM,12.2,6.8,79,30.14,3.0,Calm,Calm,-,N/A,,Overcast,0,2013-01-25 11:55:00
7:15 AM,12.2,8.6,85,30.13,4.0,ESE,4.6,-,N/A,,Overcast,120,2013-01-25 12:15:00
7:35 AM,12.2,8.6,85,30.12,2.5,SE,3.5,-,N/A,,Overcast,140,2013-01-25 12:35:00
7:55 AM,12.2,8.6,85,30.10,3.0,SE,4.6,-,N/A,,Overcast,140,2013-01-25 12:55:00
8:35 AM,12.2,8.6,85,30.08,1.2,SE,3.5,-,N/A,,Overcast,140,2013-01-25 13:35:00
8:55 AM,12.2,10.4,92,30.07,1.8,SE,4.6,-,N/A,,Overcast,130,2013-01-25 13:55:00
9:15 AM,12.2,10.4,92,30.07,1.0,ESE,4.6,-,N/A,,Overcast,120,2013-01-25 14:15:00
9:35 AM,12.2,8.6,85,30.05,1.2,SE,3.5,-,N/A,,Overcast,130,2013-01-25 14:35:00
9:55 AM,14.0,10.4,86,30.04,2.5,SE,4.6,-,N/A,,Overcast,130,2013-01-25 14:55:00
10:15 AM,15.8,12.2,86,30.04,2.5,SE,4.6,-,N/A,,Overcast,140,2013-01-25 15:15:00
10:35 AM,15.8,10.4,79,30.04,1.0,Calm,Calm,-,N/A,,Overcast,0,2013-01-25 15:35:00
10:55 AM,15.8,10.4,79,30.03,1.0,Calm,Calm,-,N/A,,Overcast,0,2013-01-25 15:55:00
11:15 AM,15.8,12.2,86,30.03,0.8,SW,4.6,-,N/A,,Overcast,230,2013-01-25 16:15:00
11:35 AM,17.6,10.4,73,30.01,2.0,SSE,3.5,-,N/A,,Overcast,150,2013-01-25 16:35:00
11:55 AM,15.8,10.4,79,30.00,5.0,SE,4.6,-,N/A,,Overcast,140,2013-01-25 16:55:00
12:15 PM,17.6,12.2,79,29.99,5.0,SSE,6.9,-,N/A,,Mostly Cloudy,160,2013-01-25 17:15:00
12:35 PM,17.6,12.2,79,29.97,3.0,South,8.1,-,N/A,,Overcast,180,2013-01-25 17:35:00
12:55 PM,17.6,12.2,79,29.97,2.5,South,6.9,-,N/A,,Overcast,190,2013-01-25 17:55:00
1:15 PM,17.6,14.0,86,29.96,1.5,SSW,5.8,-,N/A,,Overcast,210,2013-01-25 18:15:00
1:35 PM,17.6,12.2,79,29.95,1.8,SW,4.6,-,N/A,,Overcast,220,2013-01-25 18:35:00
2:15 PM,17.6,12.2,79,29.93,1.2,West,5.8,-,N/A,,Overcast,270,2013-01-25 19:15:00
2:35 PM,17.6,12.2,79,29.93,1.5,West,4.6,-,N/A,,Overcast,260,2013-01-25 19:35:00
2:55 PM,19.4,12.2,74,29.93,3.0,Calm,Calm,-,N/A,,Overcast,0,2013-01-25 19:55:00
3:15 PM,19.4,12.2,74,29.93,4.0,WSW,4.6,-,N/A,,Overcast,250,2013-01-25 20:15:00
3:35 PM,19.4,10.4,68,29.93,9.0,WSW,5.8,-,N/A,,Overcast,250,2013-01-25 20:35:00
3:55 PM,19.4,12.2,74,29.94,9.0,West,4.6,-,N/A,,Overcast,260,2013-01-25 20:55:00
4:15 PM,19.4,10.4,68,29.95,9.0,West,4.6,-,N/A,,Overcast,260,2013-01-25 21:15:00
4:35 PM,19.4,12.2,74,29.96,6.0,West,8.1,-,N/A,,Overcast,280,2013-01-25 21:35:00
4:55 PM,19.4,12.2,74,29.96,8.0,WNW,8.1,-,N/A,,Overcast,290,2013-01-25 21:55:00
5:15 PM,19.4,12.2,74,29.97,5.0,NW,4.6,-,N/A,,Overcast,310,2013-01-25 22:15:00
5:35 PM,17.6,14.0,86,29.98,1.8,NW,5.8,-,N/A,,Overcast,320,2013-01-25 22:35:00
5:55 PM,17.6,12.2,79,29.99,2.0,NW,3.5,-,N/A,,Overcast,320,2013-01-25 22:55:00
6:15 PM,17.6,12.2,79,29.99,3.0,NW,3.5,-,N/A,,Overcast,310,2013-01-25 23:15:00
6:35 PM,17.6,12.2,79,30.00,10.0,Calm,Calm,-,N/A,,Overcast,0,2013-01-25 23:35:00
6:55 PM,17.6,12.2,79,30.00,10.0,Calm,Calm,-,N/A,,Overcast,0,2013-01-25 23:55:00
7:15 PM,17.6,12.2,79,30.01,10.0,Calm,Calm,-,N/A,,Overcast,0,2013-01-26 00:15:00
7:35 PM,15.8,12.2,86,30.01,10.0,NW,3.5,-,N/A,,Overcast,310,2013-01-26 00:35:00
7:55 PM,15.8,10.4,79,30.02,10.0,WNW,4.6,-,N/A,,Overcast,300,2013-01-26 00:55:00
8:15 PM,15.8,10.4,79,30.02,10.0,WNW,4.6,-,N/A,,Overcast,300,2013-01-26 01:15:00
8:35 PM,12.2,8.6,85,30.02,10.0,WNW,5.8,-,N/A,,Mostly Cloudy,290,2013-01-26 01:35:00
8:55 PM,12.2,8.6,85,30.03,10.0,WNW,6.9,-,N/A,,Partly Cloudy,290,2013-01-26 01:55:00
9:15 PM,12.2,8.6,85,30.03,10.0,WNW,4.6,-,N/A,,Clear,300,2013-01-26 02:15:00
9:35 PM,10.4,6.8,85,30.04,10.0,WNW,5.8,-,N/A,,Clear,300,2013-01-26 02:35:00
9:55 PM,10.4,6.8,85,30.04,10.0,WNW,6.9,-,N/A,,Clear,300,2013-01-26 02:55:00
10:15 PM,10.4,6.8,85,30.04,10.0,WNW,5.8,-,N/A,,Clear,300,2013-01-26 03:15:00
10:35 PM,10.4,3.2,73,30.05,10.0,WNW,6.9,-,N/A,,Clear,290,2013-01-26 03:35:00
10:55 PM,10.4,6.8,85,30.06,10.0,West,6.9,-,N/A,,Mostly Cloudy,280,2013-01-26 03:55:00
11:15 PM,12.2,6.8,79,30.05,10.0,WNW,6.9,-,N/A,,Overcast,290,2013-01-26 04:15:00
11:35 PM,12.2,8.6,85,30.06,10.0,WNW,6.9,-,N/A,,Overcast,290,2013-01-26 04:35:00
11:55 PM,12.2,8.6,85,30.06,9.0,WNW,8.1,-,N/A,,Overcast,290,2013-01-26 04:55:00